[[{"header":{"parameterUnit":"m.s-1","parameterCategory":1,"la1":30.2991,"la2":30.254,"lo1":-89.0895,"lo2":-89.0444,"dy":0.0017,"dx":0.0017,"nx":28,"ny":28,"refTime":"2024-04-09T03:00:00:Z","depth":0,"parameterNumber":2,"parameterNumberName":"U-component_of_WINDS"},"data":[0,0,0,0,0,0,0,0,0,0,0,0,0,0,0,0,0,0,0,0,0,0,0,0,0,0,0,0,0,0,0,0,0,0,0,0,0,0,0,0,0,0,0,0,0,0,0,0,0,0,0,0,0,0,0,0,0,0,-5.2719,-5.272,0,-5.2853,-5.2855,-5.2856,-5.2883,-5.2882,-5.2881,-5.288,-5.3013,-5.3017,-5.3021,0,0,0,0,0,0,0,0,0,0,0,0,0,-5.248,-5.2484,-5.2719,-5.272,-5.2722,-5.2853,-5.2855,-5.2857,-5.2883,-5.2882,-5.288,-5.2879,-5.3011,-5.3016,-5.3022,0,0,0,0,0,0,0,0,0,0,0,0,0,-5.2596,-5.2485,-5.2718,-5.2751,-5.2755,-5.2853,-5.2855,-5.2857,-5.2883,-5.2882,-5.288,-5.2879,-5.3009,-5.3016,-5.3023,-5.3096,0,0,-5.3043,-5.3046,0,0,0,0,0,0,0,0,-5.2589,-5.2604,-5.2744,-5.2749,-5.2754,-5.285,-5.2819,-5.2937,-5.2884,-5.2834,-5.288,-5.2878,-5.2959,-5.297,-5.2999,-5.3102,-5.3107,-5.3044,-5.3048,-5.3051,-5.3053,0,0,0,0,0,0,0,-5.2581,-5.2599,-5.2772,-5.2746,-5.2752,-5.2757,-5.2772,-5.2842,-5.2904,-5.2839,-5.2841,-5.2857,-5.2962,-5.2992,-5.3002,-5.3109,-5.3044,-5.305,-5.3054,-5.3056,-5.3278,-5.328,0,0,0,0,0,0,-5.2568,-5.2592,-5.2767,-5.2776,-5.2666,-5.2763,-5.278,-5.282,-5.2903,-5.2914,-5.2858,-5.2857,-5.2981,-5.2994,-5.3007,-5.3096,-5.3051,-5.3057,-5.3061,-5.3276,-5.3278,-5.328,0,0,0,0,0,0,-5.2562,-5.2583,-5.2762,-5.2685,-5.2708,-5.2769,-5.2815,-5.2824,-5.2854,-5.2918,-5.2929,-5.2878,-5.2981,-5.2997,-5.3073,-5.3101,-5.306,-5.3066,-5.3274,-5.3277,-5.3279,-5.3276,0,0,0,0,0,0,-5.2556,-5.2581,-5.261,-5.2685,-5.2712,-5.2828,-5.2816,-5.2828,-5.2867,-5.2867,-5.2939,-5.295,-5.2981,-5.3063,-5.308,-5.311,-5.3072,-5.3272,-5.3275,-5.3278,-5.3274,-5.3278,-5.3282,0,0,0,0,0,-5.2547,-5.2603,-5.2612,-5.2633,-5.275,-5.2829,-5.2844,-5.288,-5.2869,-5.2898,-5.2939,-5.2948,-5.3096,-5.3071,-5.309,-5.3122,-5.327,-5.3274,-5.3278,-5.3272,-5.3278,-5.3282,0,0,0,0,0,0,-5.2528,-5.2614,-5.2624,-5.2707,-5.2761,-5.2834,-5.2871,-5.2885,-5.2942,-5.294,-5.298,-5.2996,-5.307,-5.3104,-5.3074,-5.3196,-5.3182,-5.319,-5.3171,-5.3177,-5.3181,-5.317,-5.3077,0,0,0,0,0,-5.2535,-5.2593,-5.2664,-5.273,-5.2757,-5.281,-5.2845,-5.2868,-5.2925,-5.2948,-5.2994,-5.3048,-5.3106,-5.3144,-5.3202,-5.328,-5.3295,-5.3312,-5.3316,-5.3319,-5.3324,-5.3367,-5.3375,-5.3294,-5.3294,-5.3294,0,0,-5.2546,-5.26,-5.2635,-5.2728,-5.2772,-5.283,-5.2828,-5.289,-5.2933,-5.2957,-5.3031,-5.3067,-5.313,-5.3207,-5.3243,-5.3238,-5.3351,-5.3324,-5.3326,-5.333,-5.3372,-5.338,-5.3386,-5.3296,-5.3296,-5.3296,0,0,-5.2597,-5.2645,-5.2705,-5.275,-5.2818,-5.2853,-5.2867,-5.2939,-5.2964,-5.304,-5.3059,-5.311,-5.3211,-5.3254,-5.3289,-5.3358,-5.3367,-5.3376,-5.3396,-5.3437,-5.3443,-5.3449,-5.3472,-5.3479,-5.3382,-5.3382,-5.3382,0,-5.2603,-5.2693,-5.2733,-5.2795,-5.2834,-5.2861,-5.292,-5.2961,-5.3044,-5.307,-5.3064,-5.319,-5.3234,-5.3321,-5.3338,-5.3367,-5.3383,-5.3366,-5.344,-5.3446,-5.3452,-5.3473,-5.3482,-5.3382,-5.3382,-5.3382,-5.3382,0,-5.2696,-5.2758,-5.2797,-5.2878,-5.2923,-5.2983,-5.303,-5.3071,-5.309,-5.3125,-5.3202,-5.3256,-5.3324,-5.3347,-5.3367,-5.3437,-5.3431,-5.3432,-5.3418,-5.3459,-5.348,-5.3489,-5.3383,-5.3383,-5.3382,-5.3382,0,0,-5.2736,-5.284,-5.2853,-5.289,-5.2968,-5.3016,-5.3077,-5.3146,-5.3178,-5.3235,-5.3285,-5.3371,-5.3372,-5.3412,-5.3436,-5.3473,-5.3521,-5.3469,-5.3471,-5.3474,-5.36,-5.3597,-5.3606,-5.353,-5.3531,-5.3533,-5.3594,0,-5.2795,-5.2906,-5.2944,-5.3035,-5.3091,-5.3118,-5.3171,-5.3223,-5.3258,-5.331,-5.3348,-5.3407,-5.3405,-5.3429,-5.3467,-5.3507,-5.3546,-5.3504,-5.3574,-5.3576,-5.3555,-5.3617,-5.3615,-5.3669,-5.3602,-5.3604,-5.3605,0,-5.2877,-5.2936,-5.3033,-5.3104,-5.3129,-5.3176,-5.3241,-5.3292,-5.3352,-5.3374,-5.342,-5.3442,-5.3505,-5.349,-5.3576,-5.3546,-5.3577,-5.3602,-5.3605,-5.361,-5.3591,-5.3622,-5.3688,-5.3695,-5.3619,-5.3618,-5.3617,0,-5.2894,-5.2998,-5.3069,-5.31,-5.3185,-5.3217,-5.3253,-5.3312,-5.3351,-5.3408,-5.3433,-5.3497,-5.3531,-5.3579,-5.3617,-5.3602,-5.3699,-5.3687,-5.3717,-5.3716,-5.3734,-5.3732,-5.3803,-5.3759,-5.3759,-5.3758,-5.3758,0,-5.2954,-5.3011,-5.3078,-5.3121,-5.3186,-5.323,-5.3292,-5.333,-5.3382,-5.3432,-5.3459,-5.3505,-5.3554,-5.3606,-5.3637,-5.3702,-5.3718,-5.3737,-5.3743,-5.3733,-5.373,-5.3752,-5.3748,-5.3761,-5.376,-5.376,-5.3759,0,-5.2982,-5.303,-5.3109,-5.3183,-5.3203,-5.3247,-5.331,-5.3352,-5.3389,-5.3452,-5.3469,-5.3526,-5.3589,-5.3633,-5.3713,-5.3733,-5.3803,-5.3811,-5.3783,-5.3786,-5.3813,-5.3809,-5.3899,-5.3912,-5.3861,-5.3861,-5.3862,0,-5.3016,-5.3061,-5.314,-5.3177,-5.3213,-5.3271,-5.3311,-5.3356,-5.3396,-5.3468,-5.3501,-5.3567,-5.3621,-5.3719,-5.3767,-5.3828,-5.3836,-5.3863,-5.3845,-5.3833,-5.3833,-5.3829,-5.3833,-5.3865,-5.3865,-5.3866,-5.3866,0,-5.307,-5.3091,-5.3149,-5.3214,-5.3262,-5.3315,-5.3369,-5.3397,-5.3451,-5.3494,-5.356,-5.3602,-5.3685,-5.3748,-5.3814,-5.385,-5.3866,-5.3872,-5.3882,-5.387,-5.3851,-5.3859,-5.3788,-5.3869,-5.3868,-5.3868,-5.3868,-5.3868,-5.31,-5.3141,-5.3203,-5.3266,-5.3312,-5.3361,-5.3405,-5.3448,-5.3503,-5.3575,-5.3598,-5.3665,-5.3723,-5.3814,-5.3851,-5.3903,-5.3901,-5.3916,-5.3919,-5.3922,-5.392,-5.3845,-5.3916,-5.3916,-5.3916,-5.3916,-5.3916,0,-5.3153,-5.3195,-5.3253,-5.3328,-5.3377,-5.3391,-5.3451,-5.349,-5.355,-5.3604,-5.3657,-5.3731,-5.3793,-5.3846,-5.391,-5.3941,-5.395,-5.3956,-5.3953,-5.3961,-5.3919,-5.3903,-5.3948,-5.3948,-5.3948,-5.3948,-5.3948,-5.3948,-5.3186,-5.3256,-5.3285,-5.3376,-5.3418,-5.3485,-5.3517,-5.3563,-5.3606,-5.3689,-5.3741,-5.3776,-5.3829,-5.3897,-5.3954,-5.3968,-5.3989,-5.3993,-5.4008,-5.3968,-5.3964,-5.396,-5.3945,-5.3998,-5.3998,-5.4045,-5.4045,-5.4045]},{"header":{"parameterUnit":"m.s-1","parameterCategory":1,"la1":30.2991,"la2":30.254,"lo1":-89.0895,"lo2":-89.0444,"dy":0.0017,"dx":0.0017,"nx":28,"ny":28,"refTime":"2024-04-09T03:00:00:Z","depth":0,"parameterNumber":3,"parameterNumberName":"V-component_of_WINDS"},"data":[0,0,0,0,0,0,0,0,0,0,0,0,0,0,0,0,0,0,0,0,0,0,0,0,0,0,0,0,0,0,0,0,0,0,0,0,0,0,0,0,0,0,0,0,0,0,0,0,0,0,0,0,0,0,0,0,0,0,3.8496,3.8498,0,3.862,3.8621,3.8623,3.8633,3.8632,3.863,3.8629,3.8757,3.8761,3.8766,0,0,0,0,0,0,0,0,0,0,0,0,0,3.8272,3.8276,3.8496,3.8498,3.8499,3.862,3.8622,3.8623,3.8633,3.8632,3.863,3.8628,3.8755,3.8761,3.8766,0,0,0,0,0,0,0,0,0,0,0,0,0,3.838,3.8277,3.8496,3.8519,3.8522,3.8619,3.8622,3.8624,3.8634,3.8632,3.863,3.8628,3.8753,3.876,3.8767,3.885,0,0,3.8788,3.8791,0,0,0,0,0,0,0,0,3.8374,3.8388,3.8514,3.8517,3.8521,3.8609,3.8589,3.87,3.8634,3.8591,3.8629,3.8627,3.8709,3.872,3.8747,3.8856,3.8862,3.8789,3.8793,3.8796,3.8798,0,0,0,0,0,0,0,3.8366,3.8383,3.8545,3.8516,3.852,3.8524,3.8537,3.861,3.866,3.8595,3.8596,3.861,3.8711,3.8741,3.875,3.8863,3.8789,3.8795,3.8799,3.8802,3.9051,3.9053,0,0,0,0,0,0,3.8354,3.8376,3.8541,3.8549,3.8441,3.853,3.8544,3.8583,3.8659,3.8669,3.8612,3.861,3.873,3.8742,3.8755,3.886,3.8796,3.8803,3.8807,3.9048,3.9051,3.9054,0,0,0,0,0,0,3.8349,3.8369,3.8536,3.8463,3.8485,3.8536,3.8579,3.8586,3.8616,3.8672,3.8681,3.8633,3.8729,3.8745,3.8827,3.8864,3.8806,3.8812,3.9045,3.9049,3.9052,3.9069,0,0,0,0,0,0,3.8343,3.8367,3.8398,3.8464,3.8489,3.8606,3.8581,3.859,3.8628,3.8627,3.8694,3.8704,3.8728,3.8817,3.8834,3.8873,3.8817,3.9042,3.9047,3.9051,3.9065,3.9073,3.9079,0,0,0,0,0,3.8335,3.8397,3.8399,3.8419,3.8529,3.8608,3.8622,3.8649,3.8631,3.8664,3.87,3.8701,3.8857,3.8825,3.8845,3.8886,3.904,3.9046,3.9051,3.9062,3.9071,3.9079,0,0,0,0,0,0,3.8334,3.8406,3.8409,3.8495,3.8545,3.8609,3.8651,3.8657,3.8714,3.871,3.8742,3.8757,3.8839,3.887,3.8833,3.8973,3.8947,3.8957,3.8949,3.8958,3.8964,3.8956,3.8823,0,0,0,0,0,3.8344,3.8401,3.8461,3.8531,3.8556,3.8599,3.8635,3.8651,3.8705,3.8726,3.8768,3.8821,3.8882,3.8921,3.898,3.907,3.9086,3.9108,3.9115,3.912,3.9129,3.9182,3.9193,3.9072,3.9072,3.9072,0,0,3.8365,3.8411,3.8446,3.8532,3.8573,3.8634,3.8617,3.8681,3.8726,3.8736,3.8817,3.885,3.891,3.8997,3.9038,3.9026,3.9166,3.9127,3.9131,3.9137,3.9188,3.92,3.921,3.9075,3.9075,3.9074,0,0,3.8434,3.8474,3.8538,3.858,3.8642,3.8671,3.8686,3.875,3.8773,3.8854,3.8864,3.8919,3.9022,3.9066,3.9102,3.9191,3.9196,3.921,3.9246,3.9297,3.9306,3.9315,3.9349,3.9361,3.9217,3.9217,3.9218,0,3.8453,3.8543,3.857,3.8635,3.8674,3.8686,3.8752,3.8791,3.887,3.8897,3.8883,3.9016,3.9057,3.9156,3.9178,3.9206,3.9226,3.9202,3.9302,3.9312,3.932,3.9353,3.9366,3.9219,3.9219,3.9219,3.9218,0,3.8564,3.8627,3.8671,3.8747,3.8791,3.8856,3.8895,3.8936,3.8949,3.898,3.9065,3.9115,3.9186,3.921,3.9224,3.9312,3.9304,3.9296,3.9271,3.9333,3.9364,3.9377,3.9221,3.922,3.922,3.922,0,0,3.8636,3.8728,3.8744,3.878,3.8851,3.89,3.8967,3.9037,3.9073,3.9127,3.9185,3.9274,3.9268,3.9309,3.9327,3.9372,3.9443,3.9359,3.9361,3.9375,3.9547,3.9554,3.9568,3.9446,3.9448,3.945,3.9543,0,3.8714,3.8833,3.886,3.8962,3.9022,3.9036,3.9094,3.9145,3.9176,3.9232,3.9267,3.933,3.9316,3.9342,3.9386,3.9425,3.9478,3.9418,3.9502,3.9505,3.9488,3.9584,3.9591,3.9675,3.9555,3.9557,3.9558,0,3.8822,3.888,3.8988,3.9054,3.908,3.9132,3.9199,3.9252,3.9311,3.9331,3.9378,3.9393,3.9464,3.9435,3.9536,3.9495,3.9531,3.9556,3.956,3.9569,3.9536,3.9598,3.9702,3.9716,3.9578,3.9576,3.9575,0,3.8867,3.8971,3.905,3.908,3.9158,3.9195,3.9229,3.9286,3.9327,3.9387,3.9414,3.9481,3.9518,3.957,3.9603,3.9579,3.9703,3.9675,3.9723,3.9722,3.9749,3.9747,3.9862,3.9769,3.9769,3.9769,3.9768,0,3.8953,3.9019,3.9072,3.912,3.9196,3.9228,3.9302,3.9337,3.9388,3.9445,3.946,3.9513,3.9553,3.9613,3.9639,3.9721,3.9736,3.9756,3.9762,3.9756,3.9753,3.9781,3.9776,3.9772,3.9771,3.9771,3.977,0,3.9015,3.9053,3.9141,3.9208,3.9226,3.9279,3.9338,3.9386,3.9418,3.9491,3.951,3.956,3.9631,3.967,3.9758,3.9776,3.9868,3.987,3.9848,3.9851,3.9897,3.9893,4.0035,4.0057,3.9947,3.9948,3.9949,0,3.9069,3.912,3.9193,3.9233,3.9268,3.9331,3.9373,3.9407,3.9451,3.9524,3.9565,3.9637,3.9696,3.981,3.9855,3.9924,3.993,3.9975,3.994,3.9932,3.9933,3.993,3.9937,3.9981,3.9982,3.9983,3.9983,0,3.916,3.9177,3.9237,3.9305,3.9355,3.941,3.9465,3.9496,3.954,3.9589,3.9662,3.9708,3.98,3.9872,3.9945,3.9982,3.9991,3.9994,4.0009,4.0003,3.999,4.0,3.9867,3.9991,3.999,3.999,3.9989,3.9989,3.9222,3.9269,3.9329,3.9397,3.9441,3.9492,3.9543,3.9581,3.9643,3.972,3.9737,3.9815,3.9875,3.9974,4.0013,4.0076,4.0067,4.0088,4.0094,4.0099,4.0102,3.9978,4.0089,4.0089,4.0089,4.0089,4.0088,0,3.9317,3.9356,3.9417,3.9494,3.9548,3.9551,3.9612,3.9657,3.9726,3.9781,3.984,3.9925,3.9996,4.0048,4.0121,4.0161,4.0168,4.018,4.0178,4.0187,4.0105,4.0086,4.0174,4.0174,4.0174,4.0174,4.0174,4.0173,3.9372,3.9454,3.9478,3.9583,3.9622,3.9698,3.9733,3.9782,3.9826,3.9921,3.998,4.0013,4.0068,4.0146,4.0212,4.0225,4.0253,4.0265,4.0279,4.0201,4.0192,4.0184,4.0166,4.027,4.027,4.0356,4.0357,4.0358]}]]